NOAA 16 DEB, 41417

Orbit data source: Space-Track

NOAA 16 DEB, 41417 is space debris in SSO originally from a launch on Thu, 21 Sep 2000 UTC launched from the Air Force Western Test Range (AFWTR). Debris objects in space refer to the collection of defunct objects orbiting the Earth. Examples of debris include non-operational satellites, rocket bodies, and fragments generated from explosions, collisions, or faulty payload assembly.

Loading next visibility...
Identifier
41417, 2000-055KW
Orbit
SSO
Country
Flag of USUS
Related business
Manufacturer
Unknown
Mission
Spacecraft
Bus & Motor
Unknown
Mass
Unknown
Launch date (UTC)
2000-09-21 (25 years ago)
Launch vehicle
Unknown
Launch site
Air Force Western Test Range (AFWTR)
Object type
Payload
Rocket body
Debris
Shape & HBR
Unknown shape, 0.1 m
Radar Cross Section
Small (<0.1 m²)

Expand to show TLE details & history
Last TLE update: 23 hours ago

TLE from 23 hours ago
0 NOAA 16 DEB
1 41417U 00055KW  25349.70649289  .00003247  00000-0  12580-2 0  9999
2 41417  98.7353  76.4495 0019649 154.1769 206.0398 14.30604482507047
Epoch: 2025-12-15T16:57Z
TLE epoch observation values (Epoch: 2025-12-15T16:57:20.985Z)
Latitude
-0.00007°
Longitude
97.51087°
Altitude
805.301 km
Speed
7.444 km/s
True Right ascension
05h 05m 47s
True Declination
0° 00' 00"
Sunlit
Object was in full shadow at epoch
Visualization orbit readout
Latitude
Unknown
Longitude
Unknown
Altitude
Unknown
Speed
Unknown
Apparent Right ascension
Unknown
Apparent Declination
Unknown
Sunlit
N/A
Visualization observer readout
Local Sidereal Time
14:50:37
Azimuth
Unknown
Elevation
Unknown
Doppler factor
Unknown
Orbital elements
Apogee altitude
800.935 km
Perigee altitude
772.778 km
Semi-major axis
7,164.994 km
Eccentricity
0.00196
Inclination
98.7353°
RAAN
76.4495°
Arg. of periapsis
154.1769°
True anomaly
205.94117°
Mean anomaly
206.0398°
Eccentric anomaly
205.99046°
Mean motion
3.57865 °/min
Orbital period
100.6 mins
BSTAR
0.001258
Loading maneuver chart data...
Computing Atmospheric mass density...

Documentation

Showing up to 5 results
|